Location: Aulnoy
(48.8410°N, 3.0967°E)
Time: 20:46:15
(UTC+00:00)

Cosmos 1570 Rocket - Pass Details

Date: 09 February 2023
Orbit: 762 x 787 km, 74.1° (Epoch: 21 March)

Event Time Altitude Azimuth Distance (km) Brightness Sun altitude
Rises 18:43:36 0° 336° (NNW) 3,292 7.6 -17.8°
Reaches altitude 10° 18:46:00 10° 335° (NNW) 2,358 6.8 -18.1°
Maximum altitude 18:51:22 83° 249° (WSW) 798 4.1 -19.0°
Drops below altitude 10° 18:56:41 10° 162° (SSE) 2,330 6.3 -19.9°
Sets 18:59:03 0° 162° (SSE) 3,250 7.1 -20.3°
